Homer, AK

9:30 AM AKST on February 27, 2017 (GMT -0900)
Homer

Weather History for PAHO - January, 2014

Change the Weather History Date:

Thursday, January 23, 2014

  Actual Average Record
Temperature  
Mean Temperature 46 °F -  
Max Temperature 53 °F 28 °F 53 °F (2014)
Min Temperature 39 °F 18 °F -13 °F (1973)
Degree Days  
Heating Degree Days 19    
Moisture  
Dew Point 37 °F    
Average Humidity 71    
Maximum Humidity 86    
Minimum Humidity 55    
Precipitation  
Precipitation 0.04 in - - ()
Sea Level Pressure  
Sea Level Pressure 29.58 in    
Wind  
Wind Speed 3 mph (ENE)    
Max Wind Speed 10 mph    
Max Gust Speed 18 mph    
Visibility 10 miles    
Events Rain    
Averages and records for this station are not official NWS values.
T = Trace of Precipitation, MM = Missing Value Source: NWS Daily Summary

Daily Weather History Graph

Daily Weather History Graph

Search for Another Location

Airport or City:

Trip Planner

Search our weather history database for the weather conditions in past years. The results will help you decide how hot, cold, wet, or windy it might be!

Date:

Astronomy

Jan. 23, 2014 Rise Set
Actual Time 9:36 AM AKST 5:00 PM AKST
Civil Twilight 8:47 AM AKST 5:49 PM AKST
Nautical Twilight 7:55 AM AKST 6:41 PM AKST
Astronomical Twilight 7:06 AM AKST 7:29 PM AKST
Moon 1:34 AM AKST (1/23) 11:19 AM AKST (1/23)
Length of Visible Light 9h 02m
Length of Day
7h 23m
Waning Gibbous, 54% of the Moon is Illuminated
Jan 23
Waning Gibbous
Jan 23
Last Quarter
Jan 30
New
Feb 6
First Quarter
Feb 14
Full

Hourly Weather History & Observations

Time (AKST) Temp. Windchill Dew Point Humidity Pressure Visibility Wind Dir Wind Speed Gust Speed Precip Events Conditions
12:53 AM 45.0 °F - 37.0 °F 74% 29.42 in 10.0 mi Calm Calm - 0.00 in Rain Light Rain
1:53 AM 44.1 °F - 37.0 °F 76% 29.42 in 9.0 mi Calm Calm - 0.01 in Rain Rain
3:53 AM 45.0 °F 43.5 °F 39.0 °F 80% 29.46 in 10.0 mi WNW 3.5 mph - 0.02 in Rain Light Rain
4:53 AM 43.0 °F - 39.0 °F 86% 29.47 in 10.0 mi Calm Calm - 0.01 in   Overcast
5:53 AM 43.0 °F - 39.0 °F 86% 29.52 in 10.0 mi Calm Calm - N/A   Overcast
6:53 AM 39.9 °F 37.8 °F 36.0 °F 86% 29.55 in 10.0 mi North 3.5 mph - N/A   Overcast
7:53 AM 39.9 °F 35.8 °F 36.0 °F 86% 29.57 in 10.0 mi NE 5.8 mph - 0.00 in   Mostly Cloudy
8:53 AM 43.0 °F - 37.9 °F 82% 29.60 in 10.0 mi Calm Calm - N/A   Overcast
9:53 AM 39.9 °F 37.8 °F 35.1 °F 83% 29.62 in 10.0 mi North 3.5 mph - N/A   Partly Cloudy
10:53 AM 42.1 °F - 36.0 °F 79% 29.65 in 10.0 mi Calm Calm - N/A   Clear
11:53 AM 53.1 °F - 37.0 °F 55% 29.68 in 10.0 mi SSE 10.4 mph 18.4 mph N/A   Clear
12:53 PM 50.0 °F - 37.0 °F 61% 29.69 in 10.0 mi Variable 4.6 mph - N/A   Clear
1:53 PM 51.1 °F - 36.0 °F 56% 29.71 in 10.0 mi North 8.1 mph - N/A   Clear
2:53 PM 48.9 °F - 37.0 °F 64% 29.70 in 10.0 mi Calm Calm - N/A   Partly Cloudy
3:53 PM 48.9 °F - 37.0 °F 64% 29.69 in 10.0 mi Variable 4.6 mph - N/A   Clear
4:53 PM 48.9 °F - 36.0 °F 61% 29.68 in 10.0 mi NE 5.8 mph - N/A   Clear
5:53 PM 46.0 °F - 36.0 °F 68% 29.66 in 10.0 mi Calm Calm - N/A   Mostly Cloudy
6:53 PM 46.0 °F 43.1 °F 36.0 °F 68% 29.64 in 10.0 mi NE 5.8 mph - N/A   Overcast
7:53 PM 48.9 °F - 36.0 °F 61% 29.60 in 10.0 mi ENE 6.9 mph - N/A   Overcast
8:53 PM 48.0 °F - 36.0 °F 63% 29.55 in 10.0 mi East 5.8 mph - N/A   Overcast
9:53 PM 46.9 °F - 36.0 °F 66% 29.52 in 10.0 mi ESE 8.1 mph - N/A   Overcast
10:53 PM 48.0 °F - 36.0 °F 63% 29.49 in 10.0 mi East 4.6 mph - 0.00 in Rain Light Rain
11:53 PM 46.9 °F - 37.0 °F 68% 29.49 in 10.0 mi East 8.1 mph - 0.00 in   Overcast